Albany, GA

9:07 PM EDT on October 20, 2017 (GMT -0400)
Southwest Georgia Regional

Weather History for KABY - September, 2013

Change the Weather History Date:

Wednesday, September 25, 2013

  Actual Average Record
Temperature  
Mean Temperature 78 °F 75 °F  
Max Temperature 85 °F 86 °F 98 °F (1931)
Min Temperature 71 °F 64 °F 44 °F (1990)
Degree Days  
Heating Degree Days 0 0  
Month to date heating degree days 0 0  
Since 1 July heating degree days 0 0  
Cooling Degree Days 13 10  
Month to date cooling degree days 372 337  
Year to date cooling degree days 2193 2310  
Growing Degree Days 26 (Base 50)    
Moisture  
Dew Point 72 °F    
Average Humidity 85    
Maximum Humidity 100    
Minimum Humidity 69    
Precipitation  
Precipitation 0.12 in 0.09 in 0.53 in (2010)
Month to date precipitation 1.17 3.01  
Year to date precipitation 42.53 38.61  
Sea Level Pressure  
Sea Level Pressure 29.82 in    
Wind  
Wind Speed 5 mph (ENE)    
Max Wind Speed 16 mph    
Max Gust Speed 25 mph    
Visibility 7 miles    
Events Rain    
T = Trace of Precipitation, MM = Missing Value Source: NWS Daily Summary

Daily Weather History Graph

Daily Weather History Graph

Search for Another Location

Airport or City:

Trip Planner

Search our weather history database for the weather conditions in past years. The results will help you decide how hot, cold, wet, or windy it might be!

Date:

Astronomy

Sep. 25, 2013 Rise Set
Actual Time 7:26 AM EDT 7:29 PM EDT
Civil Twilight 7:02 AM EDT 7:53 PM EDT
Nautical Twilight 6:34 AM EDT 8:21 PM EDT
Astronomical Twilight 6:05 AM EDT 8:50 PM EDT
Moon 11:53 PM EDT (9/25) 1:12 PM EDT (9/25)
Length of Visible Light 12h 50m
Length of Day
12h 02m
Waning Gibbous, 64% of the Moon is Illuminated
Sep 25
Waning Gibbous
Sep 26
Last Quarter
Oct 4
New
Oct 11
First Quarter
Oct 18
Full

Hourly Weather History & Observations

Time (EDT) Temp. Heat Index Dew Point Humidity Pressure Visibility Wind Dir Wind Speed Gust Speed Precip Events Conditions
12:53 AM 73.0 °F - 71.1 °F 93% 29.87 in 6.0 mi Calm Calm - 0.03 in Rain Light Rain
1:53 AM 71.1 °F - 70.0 °F 96% 29.79 in 7.0 mi SE 15.0 mph - 0.03 in Rain Light Rain
2:45 AM 71.6 °F - 69.8 °F 94% 29.82 in 9.0 mi NNE 3.5 mph - 0.00 in Rain Light Rain
2:53 AM 72.0 °F - 70.0 °F 93% 29.82 in 9.0 mi ESE 4.6 mph - 0.00 in Rain Light Rain
3:24 AM 71.6 °F - 69.8 °F 94% 29.82 in 9.0 mi NE 3.5 mph - 0.00 in Rain Light Rain
3:50 AM 71.6 °F - 69.8 °F 94% 29.80 in 8.0 mi ENE 8.1 mph - 0.00 in   Overcast
3:53 AM 71.1 °F - 70.0 °F 96% 29.80 in 8.0 mi ENE 8.1 mph - 0.00 in   Overcast
4:53 AM 72.0 °F - 70.0 °F 93% 29.81 in 7.0 mi NE 4.6 mph - N/A   Overcast
5:53 AM 71.1 °F - 70.0 °F 96% 29.82 in 7.0 mi NE 4.6 mph - N/A   Overcast
6:53 AM 71.1 °F - 70.0 °F 96% 29.82 in 6.0 mi ENE 3.5 mph - N/A   Overcast
7:53 AM 71.1 °F - 70.0 °F 96% 29.84 in 5.0 mi East 3.5 mph - N/A   Overcast
8:44 AM 71.6 °F - 71.6 °F 100% 29.85 in 2.0 mi Calm Calm - N/A   Overcast
8:53 AM 72.0 °F - 71.1 °F 97% 29.85 in 1.8 mi East 3.5 mph - N/A   Overcast
9:27 AM 71.6 °F - 71.6 °F 100% 29.85 in 2.0 mi East 3.5 mph - N/A   Overcast
9:37 AM 71.6 °F - 71.6 °F 100% 29.85 in 2.0 mi East 4.6 mph - N/A   Overcast
9:53 AM 73.0 °F - 71.1 °F 93% 29.85 in 3.0 mi East 4.6 mph - N/A   Overcast
10:21 AM 73.4 °F - 71.6 °F 94% 29.85 in 4.0 mi ESE 4.6 mph - N/A   Overcast
10:53 AM 73.0 °F - 71.1 °F 93% 29.86 in 6.0 mi SE 3.5 mph - N/A   Overcast
11:53 AM 75.0 °F - 72.0 °F 90% 29.85 in 9.0 mi East 3.5 mph - N/A   Overcast
12:01 PM 75.2 °F - 71.6 °F 89% 29.85 in 9.0 mi East 3.5 mph - N/A   Overcast
12:53 PM 77.0 °F - 72.0 °F 84% 29.84 in 10.0 mi East 3.5 mph - N/A   Overcast
1:53 PM 80.1 °F 83.8 °F 72.0 °F 76% 29.81 in 10.0 mi East 6.9 mph - N/A   Overcast
2:50 PM 80.6 °F 84.6 °F 71.6 °F 74% 29.79 in 10.0 mi East 4.6 mph - N/A   Overcast
2:53 PM 81.0 °F 85.2 °F 72.0 °F 74% 29.79 in 10.0 mi ESE 5.8 mph - N/A   Overcast
3:53 PM 82.0 °F 86.7 °F 72.0 °F 71% 29.77 in 10.0 mi NE 3.5 mph - N/A   Overcast
4:53 PM 82.0 °F 86.7 °F 72.0 °F 71% 29.77 in 10.0 mi ESE 6.9 mph - N/A   Overcast
5:53 PM 75.9 °F - 73.9 °F 94% 29.79 in 6.0 mi NNE 5.8 mph - 0.09 in Rain Light Rain
6:53 PM 78.1 °F - 73.9 °F 87% 29.78 in 10.0 mi Calm Calm - 0.00 in   Scattered Clouds
7:53 PM 75.9 °F - 73.9 °F 94% 29.80 in 10.0 mi Calm Calm - N/A   Clear
8:53 PM 73.9 °F - 73.9 °F 100% 29.80 in 6.0 mi Calm Calm - N/A   Clear
9:23 PM 73.4 °F - 73.4 °F 100% 29.81 in 1.8 mi NNW 3.5 mph - N/A   Clear
9:33 PM 73.4 °F - 73.4 °F 100% 29.82 in 3.0 mi NNW 4.6 mph - N/A   Clear
9:53 PM 73.9 °F - 73.0 °F 97% 29.82 in 6.0 mi North 3.5 mph - N/A   Partly Cloudy
10:43 PM 75.2 °F - 73.4 °F 94% 29.83 in 8.0 mi NNE 4.6 mph - N/A   Overcast
10:53 PM 73.9 °F - 73.0 °F 97% 29.83 in 8.0 mi NNE 6.9 mph - N/A   Overcast
11:53 PM 73.0 °F - 73.0 °F 100% 29.83 in 7.0 mi NNE 6.9 mph - N/A   Overcast